Tiempo cada hora Abramovo

Hoy, 20 Octubre, Martes

Tiempo Temperatura Precipitaciones Viento Presión Humedad
00:00 +1°C° 0.1 mm 6 mps 739 mmHg 86%
01:00 0°C° 0.1 mm 5 mps 740 mmHg 87%
02:00 0°C° 0.1 mm 5 mps 740 mmHg 88%
03:00 0°C° 0.1 mm 5 mps 740 mmHg 88%
04:00 0°C° 0.1 mm 5 mps 740 mmHg 89%
05:00 -1°C° 0.1 mm 6 mps 740 mmHg 89%
06:00 0°C° 0.4 mm 5 mps 740 mmHg 90%
07:00 0°C° 0.4 mm 5 mps 740 mmHg 92%
08:00 0°C° 0.4 mm 5 mps 741 mmHg 93%
09:00 0°C° 0.4 mm 5 mps 741 mmHg 94%
10:00 0°C° 0.4 mm 4 mps 742 mmHg 94%
11:00 0°C° 0.4 mm 4 mps 742 mmHg 94%
12:00 0°C° 0.1 mm 5 mps 743 mmHg 87%
13:00 +1°C° 0.1 mm 5 mps 744 mmHg 81%
14:00 +1°C° 0.1 mm 6 mps 745 mmHg 74%
15:00 +1°C° 0 mm 5 mps 745 mmHg 77%
16:00 0°C° 0 mm 4 mps 746 mmHg 80%
17:00 0°C° 0 mm 3 mps 746 mmHg 84%
18:00 0°C° 0 mm 3 mps 746 mmHg 86%
19:00 -1°C° 0 mm 3 mps 747 mmHg 89%
20:00 -1°C° 0 mm 3 mps 747 mmHg 91%
21:00 -1°C° 0 mm 3 mps 748 mmHg 92%
22:00 -1°C° 0 mm 2 mps 748 mmHg 94%
23:00 -1°C° 0 mm 2 mps 748 mmHg 95%

Mañana, 21 Octubre, Miércoles

Tiempo Temperatura Precipitaciones Viento Presión Humedad
00:00 -2°C° 0 mm 2 mps 748 mmHg 95%
01:00 -2°C° 0 mm 2 mps 748 mmHg 95%
02:00 -2°C° 0 mm 2 mps 749 mmHg 95%
03:00 -2°C° 0 mm 2 mps 749 mmHg 94%
04:00 -2°C° 0 mm 2 mps 748 mmHg 93%
05:00 0°C° 0 mm 1 mps 748 mmHg 92%
06:00 +1°C° 0 mm 1 mps 748 mmHg 91%
07:00 -1°C° 0 mm 2 mps 748 mmHg 89%
08:00 +1°C° 0 mm 2 mps 748 mmHg 88%
09:00 +1°C° 0.1 mm 2 mps 748 mmHg 91%
10:00 +2°C° 0.1 mm 2 mps 747 mmHg 93%
11:00 +2°C° 0.1 mm 2 mps 747 mmHg 96%
12:00 +2°C° 0.3 mm 2 mps 747 mmHg 96%
13:00 +2°C° 0.3 mm 2 mps 747 mmHg 96%
14:00 +2°C° 0.3 mm 2 mps 746 mmHg 97%
15:00 +2°C° 0.2 mm 2 mps 746 mmHg 97%
16:00 +2°C° 0.2 mm 2 mps 745 mmHg 98%
17:00 +2°C° 0.2 mm 2 mps 745 mmHg 98%
18:00 +4°C° 0.1 mm 1 mps 745 mmHg 98%
19:00 +4°C° 0.1 mm 1 mps 745 mmHg 98%
20:00 +4°C° 0.1 mm 1 mps 745 mmHg 98%
21:00 +4°C° 0.1 mm 1 mps 745 mmHg 98%
22:00 +4°C° 0.1 mm 1 mps 745 mmHg 98%
23:00 +4°C° 0.1 mm 1 mps 745 mmHg 98%

Pasado mañana, 22 Octubre, Jueves

Tiempo Temperatura Precipitaciones Viento Presión Humedad
00:00 +4°C° 0 mm 1 mps 745 mmHg 98%
01:00 +4°C° 0 mm 1 mps 745 mmHg 98%
02:00 +4°C° 0 mm 1 mps 745 mmHg 98%
03:00 +4°C° 0 mm 1 mps 745 mmHg 98%
04:00 +3°C° 0 mm 2 mps 745 mmHg 97%
05:00 +3°C° 0 mm 2 mps 745 mmHg 97%
06:00 +3°C° 0 mm 2 mps 745 mmHg 97%
07:00 +2°C° 0 mm 3 mps 744 mmHg 96%
08:00 +2°C° 0 mm 3 mps 744 mmHg 96%
09:00 +3°C° 0.1 mm 3 mps 744 mmHg 94%
10:00 +4°C° 0.1 mm 4 mps 743 mmHg 92%
11:00 +5°C° 0.1 mm 4 mps 743 mmHg 91%
12:00 +5°C° 0.8 mm 4 mps 742 mmHg 92%
13:00 +5°C° 0.8 mm 4 mps 742 mmHg 93%
14:00 +5°C° 0.8 mm 4 mps 741 mmHg 95%
15:00 +5°C° 0.4 mm 4 mps 741 mmHg 95%
16:00 +5°C° 0.4 mm 4 mps 740 mmHg 95%
17:00 +6°C° 0.4 mm 4 mps 740 mmHg 95%
18:00 +6°C° 0 mm 4 mps 739 mmHg 95%
19:00 +7°C° 0 mm 4 mps 739 mmHg 94%
20:00 +7°C° 0 mm 4 mps 739 mmHg 94%
21:00 +8°C° 0 mm 4 mps 739 mmHg 93%
22:00 +8°C° 0 mm 4 mps 739 mmHg 92%
23:00 +10°C° 0 mm 4 mps 739 mmHg 92%

23 Octubre, Viernes

Tiempo Temperatura Precipitaciones Viento Presión Humedad
00:00 +10°C° 0 mm 4 mps 739 mmHg 92%
01:00 +8°C° 0 mm 4 mps 739 mmHg 93%
02:00 +9°C° 0 mm 3 mps 740 mmHg 93%
03:00 +9°C° 0 mm 3 mps 740 mmHg 94%
04:00 +9°C° 0 mm 3 mps 740 mmHg 94%
05:00 +10°C° 0 mm 3 mps 740 mmHg 94%
06:00 +10°C° 0 mm 3 mps 739 mmHg 94%
07:00 +10°C° 0 mm 4 mps 739 mmHg 94%
08:00 +10°C° 0 mm 4 mps 738 mmHg 94%
09:00 +11°C° 0 mm 4 mps 738 mmHg 90%
10:00 +10°C° 0 mm 5 mps 738 mmHg 86%
11:00 +11°C° 0 mm 6 mps 737 mmHg 83%
12:00 +11°C° 0 mm 6 mps 737 mmHg 83%
13:00 +12°C° 0 mm 5 mps 737 mmHg 83%
14:00 +13°C° 0 mm 5 mps 736 mmHg 83%
15:00 +12°C° 1.1 mm 5 mps 736 mmHg 86%
16:00 +10°C° 1.1 mm 5 mps 736 mmHg 89%
17:00 +10°C° 1.1 mm 5 mps 735 mmHg 92%
18:00 +10°C° 0.3 mm 5 mps 735 mmHg 92%
19:00 +10°C° 0.3 mm 5 mps 735 mmHg 91%
20:00 +10°C° 0.3 mm 5 mps 735 mmHg 91%
21:00 +10°C° 0.2 mm 5 mps 735 mmHg 92%
22:00 +11°C° 0.2 mm 4 mps 734 mmHg 92%
23:00 +11°C° 0.2 mm 4 mps 734 mmHg 93%

24 Octubre, Sábado

Tiempo Temperatura Precipitaciones Viento Presión Humedad
00:00 +11°C° 0.1 mm 4 mps 734 mmHg 92%
01:00 +11°C° 0.1 mm 4 mps 734 mmHg 90%
02:00 +11°C° 0.1 mm 4 mps 734 mmHg 89%
03:00 +11°C° 0.1 mm 4 mps 734 mmHg 88%
04:00 +11°C° 0.1 mm 4 mps 734 mmHg 87%
05:00 +10°C° 0.1 mm 4 mps 734 mmHg 87%
06:00 +10°C° 0.1 mm 4 mps 735 mmHg 87%
07:00 +10°C° 0.1 mm 3 mps 735 mmHg 87%
08:00 +9°C° 0.1 mm 3 mps 736 mmHg 87%
09:00 +10°C° 0 mm 3 mps 736 mmHg 83%
10:00 +10°C° 0 mm 3 mps 737 mmHg 79%
11:00 +11°C° 0 mm 3 mps 737 mmHg 75%
12:00 +11°C° 0.1 mm 3 mps 737 mmHg 75%
13:00 +11°C° 0.1 mm 3 mps 737 mmHg 74%
14:00 +11°C° 0.1 mm 3 mps 737 mmHg 74%
15:00 +10°C° 0.1 mm 3 mps 737 mmHg 79%
16:00 +9°C° 0.1 mm 2 mps 736 mmHg 84%
17:00 +8°C° 0.1 mm 2 mps 736 mmHg 89%
18:00 +8°C° 0.4 mm 2 mps 736 mmHg 91%
19:00 +8°C° 0.4 mm 2 mps 736 mmHg 93%
20:00 +8°C° 0.4 mm 2 mps 736 mmHg 94%
21:00 +8°C° 0.6 mm 2 mps 736 mmHg 94%
22:00 +9°C° 0.6 mm 1 mps 736 mmHg 93%
23:00 +9°C° 0.6 mm 1 mps 736 mmHg 93%

25 Octubre, Domingo

Tiempo Temperatura Precipitaciones Viento Presión Humedad
00:00 +8°C° 0 mm 2 mps 735 mmHg 93%
01:00 +7°C° 0 mm 2 mps 735 mmHg 93%
02:00 +7°C° 0 mm 2 mps 735 mmHg 94%
03:00 +7°C° 0 mm 2 mps 735 mmHg 94%
04:00 +7°C° 0 mm 2 mps 735 mmHg 93%
05:00 +7°C° 0 mm 2 mps 735 mmHg 93%
06:00 +7°C° 0 mm 2 mps 735 mmHg 93%
07:00 +7°C° 0 mm 2 mps 735 mmHg 92%
08:00 +7°C° 0 mm 2 mps 735 mmHg 91%
09:00 +8°C° 0 mm 2 mps 736 mmHg 88%
10:00 +8°C° 0 mm 3 mps 736 mmHg 84%
11:00 +9°C° 0 mm 3 mps 736 mmHg 81%
12:00 +9°C° 0 mm 3 mps 737 mmHg 82%
13:00 +8°C° 0 mm 4 mps 737 mmHg 82%
14:00 +8°C° 0 mm 4 mps 738 mmHg 83%
15:00 +7°C° 0.2 mm 4 mps 738 mmHg 83%
16:00 +6°C° 0.2 mm 5 mps 738 mmHg 84%
17:00 +5°C° 0.2 mm 6 mps 739 mmHg 85%
18:00 +5°C° 0.1 mm 5 mps 739 mmHg 84%
19:00 +3°C° 0.1 mm 5 mps 740 mmHg 84%
20:00 +3°C° 0.1 mm 4 mps 741 mmHg 83%
21:00 +1°C° 0 mm 4 mps 741 mmHg 85%
22:00 +2°C° 0 mm 3 mps 742 mmHg 87%
23:00 +2°C° 0 mm 3 mps 742 mmHg 88%

26 Octubre, Lunes

Tiempo Temperatura Precipitaciones Viento Presión Humedad
00:00 +1°C° 0 mm 3 mps 742 mmHg 89%
01:00 +1°C° 0 mm 3 mps 743 mmHg 90%
02:00 +1°C° 0 mm 3 mps 743 mmHg 91%
03:00 +1°C° 0 mm 3 mps 743 mmHg 92%
04:00 0°C° 0 mm 3 mps 743 mmHg 93%
05:00 0°C° 0 mm 3 mps 743 mmHg 94%
06:00 0°C° 0 mm 3 mps 743 mmHg 93%
07:00 +1°C° 0 mm 3 mps 744 mmHg 92%
08:00 0°C° 0 mm 4 mps 744 mmHg 92%
09:00 0°C° 0 mm 4 mps 744 mmHg 89%
10:00 +1°C° 0 mm 4 mps 744 mmHg 87%
11:00 +3°C° 0 mm 4 mps 744 mmHg 84%
12:00 +3°C° 0 mm 4 mps 744 mmHg 82%
13:00 +3°C° 0 mm 4 mps 744 mmHg 81%
14:00 +2°C° 0 mm 5 mps 744 mmHg 79%
15:00 +1°C° 0 mm 4 mps 745 mmHg 79%
16:00 +1°C° 0 mm 4 mps 746 mmHg 79%
17:00 +1°C° 0 mm 3 mps 746 mmHg 79%
18:00 +1°C° 0 mm 3 mps 747 mmHg 83%
19:00 0°C° 0 mm 3 mps 748 mmHg 87%
20:00 -1°C° 0 mm 2 mps 749 mmHg 90%
21:00 -1°C° 0 mm 2 mps 749 mmHg 91%
22:00 -2°C° 0 mm 2 mps 750 mmHg 92%
23:00 0°C° 0 mm 1 mps 750 mmHg 93%
Mostrar más

Necesitamos Su Consentimiento

Meteoprog y nuestros Proveedores de Servicios pueden almacenar y acceder a sus datos personales como cookies, identificadores de dispositivo u otras tecnologías similares de su dispositivo y procesar dichos datos para personalizar contenido y anuncios, además de ofrecer funciones de redes sociales y analizar el tráfico.

  • Almacenar y/o acceder a información en su dispositivo

    Se puede almacenar o acceder a cookies, identificadores de dispositivo u otra información de su dispositivo para los fines anteriormente indicados.

  • Anuncios y contenido personalizados, medición de anuncios y contenido, percepciones del público, y desarrollo de productos

    Los anuncios y el contenido pueden personalizarse en base a su perfil. Se pueden añadir más datos para personalizar mejor los anuncios y contenidos. Se puede medir el rendimiento de los anuncios y contenidos. Se puede obtener la percepción sobre el público que ha visto los anuncios y contenidos. Dichos datos pueden usarse para desarrollar o mejorar la experiencia del usuario, sistemas y software.

Al hacer clic en ‘Estoy De Acuerdo’ usted permitirá el uso de las cookies, identificadores de dispositivo, balizas web u otras tecnologías similares indicadas. Su configuración puede cambiarse desde el navegador de su dispositivo.

Para ciertos fines, los intereses legítimos pueden ser considerados por encima del consentimiento. Puede leer más sobre ello en nuestra Política de Privacidad y Cookies.